Time,TemperatureF,DewpointF,PressureIn,WindDirection,WindDirectionDegrees,WindSpeedMPH,WindSpeedGustMPH,Humidity,HourlyPrecipIn,Conditions,Clouds,dailyrainin,SoftwareType,DateUTC
2013-12-07 00:02:00,-9.8,-13.8,30.84,WNW,295,0.0,0.0,82,0.00,,,0.00,WeatherCatV1.21B27,2013-12-07 06:02:00,
2013-12-07 00:07:00,-9.8,-13.8,30.83,WNW,295,1.0,1.0,82,0.00,,,0.00,WeatherCatV1.21B27,2013-12-07 06:07:00,
2013-12-07 00:12:00,-9.7,-13.7,30.83,WNW,295,0.0,0.0,82,0.00,,,0.00,WeatherCatV1.21B27,2013-12-07 06:12:00,
2013-12-07 00:17:00,-9.6,-13.6,30.83,WNW,295,1.0,2.0,82,0.00,,,0.00,WeatherCatV1.21B27,2013-12-07 06:17:00,
2013-12-07 00:22:00,-9.6,-13.6,30.83,WNW,295,0.0,1.0,82,0.00,,,0.00,WeatherCatV1.21B27,2013-12-07 06:22:00,
2013-12-07 00:27:00,-9.7,-13.7,30.83,WNW,295,0.0,1.0,82,0.00,,,0.00,WeatherCatV1.21B27,2013-12-07 06:27:00,
2013-12-07 00:32:00,-9.8,-13.8,30.83,WNW,295,0.0,1.0,82,0.00,,,0.00,WeatherCatV1.21B27,2013-12-07 06:32:00,
2013-12-07 00:37:00,-9.7,-13.7,30.83,WNW,295,1.0,1.0,82,0.00,,,0.00,WeatherCatV1.21B27,2013-12-07 06:37:00,
2013-12-07 00:42:00,-9.6,-13.6,30.83,WNW,295,0.0,0.0,82,0.00,,,0.00,WeatherCatV1.21B27,2013-12-07 06:42:00,
2013-12-07 00:47:00,-9.5,-13.5,30.83,WNW,295,0.0,1.0,82,0.00,,,0.00,WeatherCatV1.21B27,2013-12-07 06:47:00,
2013-12-07 00:52:00,-9.5,-13.5,30.83,WNW,295,0.0,0.0,82,0.00,,,0.00,WeatherCatV1.21B27,2013-12-07 06:52:00,
2013-12-07 00:57:00,-9.6,-13.6,30.83,WNW,295,0.0,0.0,82,0.00,,,0.00,WeatherCatV1.21B27,2013-12-07 06:57:00,
2013-12-07 01:02:00,-9.8,-13.8,30.83,WNW,295,0.0,0.0,82,0.00,,,0.00,WeatherCatV1.21B27,2013-12-07 07:02:00,
2013-12-07 01:07:00,-9.9,-13.9,30.83,WNW,295,0.0,0.0,82,0.00,,,0.00,WeatherCatV1.21B27,2013-12-07 07:07:00,
2013-12-07 01:12:00,-9.8,-13.8,30.83,WNW,295,0.0,2.0,82,0.00,,,0.00,WeatherCatV1.21B27,2013-12-07 07:12:00,
2013-12-07 01:17:00,-9.8,-13.8,30.83,WNW,295,0.0,0.0,82,0.00,,,0.00,WeatherCatV1.21B27,2013-12-07 07:17:00,
2013-12-07 01:22:00,-9.8,-13.8,30.83,WNW,295,0.0,1.0,82,0.00,,,0.00,WeatherCatV1.21B27,2013-12-07 07:22:00,
2013-12-07 01:27:00,-9.9,-13.9,30.83,WNW,295,0.0,0.0,82,0.00,,,0.00,WeatherCatV1.21B27,2013-12-07 07:27:00,
2013-12-07 01:32:00,-10.0,-14.0,30.82,WNW,295,0.0,0.0,82,0.00,,,0.00,WeatherCatV1.21B27,2013-12-07 07:32:00,
2013-12-07 01:37:00,-10.2,-14.4,30.82,WNW,295,0.0,0.0,81,0.00,,,0.00,WeatherCatV1.21B27,2013-12-07 07:37:00,
2013-12-07 01:42:00,-10.4,-14.6,30.83,WNW,295,0.0,0.0,81,0.00,,,0.00,WeatherCatV1.21B27,2013-12-07 07:42:00,
2013-12-07 01:47:00,-10.6,-14.8,30.83,WNW,295,0.0,0.0,81,0.00,,,0.00,WeatherCatV1.21B27,2013-12-07 07:47:00,
2013-12-07 01:52:00,-10.8,-15.0,30.83,WNW,295,0.0,0.0,81,0.00,,,0.00,WeatherCatV1.21B27,2013-12-07 07:52:00,
2013-12-07 01:57:00,-11.1,-15.3,30.83,WNW,295,0.0,0.0,81,0.00,,,0.00,WeatherCatV1.21B27,2013-12-07 07:57:00,
2013-12-07 02:02:00,-11.3,-15.2,30.83,WNW,295,0.0,0.0,82,0.00,,,0.00,WeatherCatV1.21B27,2013-12-07 08:02:00,
2013-12-07 02:07:00,-11.3,-15.2,30.83,WNW,295,0.0,0.0,82,0.00,,,0.00,WeatherCatV1.21B27,2013-12-07 08:07:00,
2013-12-07 02:12:00,-11.3,-15.2,30.83,WNW,295,0.0,0.0,82,0.00,,,0.00,WeatherCatV1.21B27,2013-12-07 08:12:00,
2013-12-07 02:17:00,-11.2,-15.1,30.84,WNW,295,0.0,0.0,82,0.00,,,0.00,WeatherCatV1.21B27,2013-12-07 08:17:00,
2013-12-07 02:22:00,-11.4,-15.3,30.83,WNW,295,0.0,0.0,82,0.00,,,0.00,WeatherCatV1.21B27,2013-12-07 08:22:00,
2013-12-07 02:27:00,-11.6,-15.8,30.84,WNW,295,0.0,0.0,81,0.00,,,0.00,WeatherCatV1.21B27,2013-12-07 08:27:00,
2013-12-07 02:32:00,-11.8,-16.0,30.84,WNW,295,0.0,0.0,81,0.00,,,0.00,WeatherCatV1.21B27,2013-12-07 08:32:00,
2013-12-07 02:37:00,-12.0,-16.2,30.84,WNW,295,0.0,0.0,81,0.00,,,0.00,WeatherCatV1.21B27,2013-12-07 08:37:00,
2013-12-07 02:42:00,-12.2,-16.4,30.83,WNW,295,0.0,0.0,81,0.00,,,0.00,WeatherCatV1.21B27,2013-12-07 08:42:00,
2013-12-07 02:47:00,-12.2,-16.4,30.84,WNW,295,0.0,0.0,81,0.00,,,0.00,WeatherCatV1.21B27,2013-12-07 08:47:00,
2013-12-07 02:52:00,-12.7,-16.8,30.83,WNW,295,0.0,0.0,81,0.00,,,0.00,WeatherCatV1.21B27,2013-12-07 08:52:00,
2013-12-07 02:57:00,-13.0,-17.1,30.83,WNW,295,0.0,0.0,81,0.00,,,0.00,WeatherCatV1.21B27,2013-12-07 08:57:00,
2013-12-07 03:02:00,-13.1,-17.2,30.83,WNW,295,0.0,0.0,81,0.00,,,0.00,WeatherCatV1.21B27,2013-12-07 09:02:00,
2013-12-07 03:07:00,-13.1,-17.2,30.83,WNW,295,0.0,0.0,81,0.00,,,0.00,WeatherCatV1.21B27,2013-12-07 09:07:00,
2013-12-07 03:12:00,-13.4,-17.5,30.83,WNW,295,0.0,0.0,81,0.00,,,0.00,WeatherCatV1.21B27,2013-12-07 09:12:00,
2013-12-07 03:17:00,-13.5,-17.6,30.83,WNW,295,0.0,0.0,81,0.00,,,0.00,WeatherCatV1.21B27,2013-12-07 09:17:00,
2013-12-07 03:22:00,-13.5,-17.6,30.84,WNW,295,0.0,0.0,81,0.00,,,0.00,WeatherCatV1.21B27,2013-12-07 09:22:00,
2013-12-07 03:27:00,-13.5,-17.4,30.83,WNW,295,0.0,0.0,82,0.00,,,0.00,WeatherCatV1.21B27,2013-12-07 09:27:00,
2013-12-07 03:32:00,-13.6,-17.7,30.84,WNW,295,0.0,0.0,81,0.00,,,0.00,WeatherCatV1.21B27,2013-12-07 09:32:00,
2013-12-07 03:37:00,-13.7,-17.8,30.83,WNW,295,0.0,0.0,81,0.00,,,0.00,WeatherCatV1.21B27,2013-12-07 09:37:00,
2013-12-07 03:42:00,-13.7,-17.8,30.83,WNW,295,0.0,0.0,81,0.00,,,0.00,WeatherCatV1.21B27,2013-12-07 09:42:00,
2013-12-07 03:47:00,-13.8,-17.9,30.83,WNW,295,0.0,0.0,81,0.00,,,0.00,WeatherCatV1.21B27,2013-12-07 09:47:00,
2013-12-07 03:52:00,-13.9,-18.0,30.83,WNW,295,0.0,0.0,81,0.00,,,0.00,WeatherCatV1.21B27,2013-12-07 09:52:00,
2013-12-07 03:57:00,-14.0,-18.1,30.83,WNW,295,0.0,0.0,81,0.00,,,0.00,WeatherCatV1.21B27,2013-12-07 09:57:00,
2013-12-07 04:02:00,-14.0,-18.1,30.83,WNW,295,0.0,0.0,81,0.00,,,0.00,WeatherCatV1.21B27,2013-12-07 10:02:00,
2013-12-07 04:07:00,-13.9,-18.0,30.83,WNW,295,0.0,0.0,81,0.00,,,0.00,WeatherCatV1.21B27,2013-12-07 10:07:00,
2013-12-07 04:12:00,-13.6,-17.5,30.83,WNW,295,0.0,0.0,82,0.00,,,0.00,WeatherCatV1.21B27,2013-12-07 10:12:00,
2013-12-07 04:17:00,-13.5,-17.4,30.83,WNW,295,0.0,0.0,82,0.00,,,0.00,WeatherCatV1.21B27,2013-12-07 10:17:00,
2013-12-07 04:22:00,-13.6,-17.5,30.84,WNW,295,0.0,0.0,82,0.00,,,0.00,WeatherCatV1.21B27,2013-12-07 10:22:00,
2013-12-07 04:27:00,-13.7,-17.8,30.84,WNW,295,0.0,0.0,81,0.00,,,0.00,WeatherCatV1.21B27,2013-12-07 10:27:00,
2013-12-07 04:32:00,-13.8,-17.9,30.83,WNW,295,0.0,0.0,81,0.00,,,0.00,WeatherCatV1.21B27,2013-12-07 10:32:00,
2013-12-07 04:37:00,-13.4,-17.3,30.83,WNW,295,0.0,1.0,82,0.00,,,0.00,WeatherCatV1.21B27,2013-12-07 10:37:00,
2013-12-07 04:42:00,-13.2,-17.1,30.83,WNW,295,0.0,1.0,82,0.00,,,0.00,WeatherCatV1.21B27,2013-12-07 10:42:00,
2013-12-07 04:47:00,-13.1,-17.0,30.83,WNW,295,0.0,3.0,82,0.00,,,0.00,WeatherCatV1.21B27,2013-12-07 10:47:00,
2013-12-07 04:52:00,-13.0,-16.9,30.83,WNW,295,0.0,0.0,82,0.00,,,0.00,WeatherCatV1.21B27,2013-12-07 10:52:00,
2013-12-07 04:57:00,-13.0,-16.9,30.83,WNW,295,0.0,0.0,82,0.00,,,0.00,WeatherCatV1.21B27,2013-12-07 10:57:00,
2013-12-07 05:02:00,-13.1,-17.0,30.83,WNW,295,0.0,0.0,82,0.00,,,0.00,WeatherCatV1.21B27,2013-12-07 11:02:00,
2013-12-07 05:07:00,-13.1,-17.0,30.83,WNW,295,0.0,0.0,82,0.00,,,0.00,WeatherCatV1.21B27,2013-12-07 11:07:00,
2013-12-07 05:12:00,-13.2,-17.3,30.84,WNW,295,0.0,0.0,81,0.00,,,0.00,WeatherCatV1.21B27,2013-12-07 11:12:00,
2013-12-07 05:17:00,-13.3,-17.4,30.84,WNW,295,0.0,0.0,81,0.00,,,0.00,WeatherCatV1.21B27,2013-12-07 11:17:00,
2013-12-07 05:22:00,-13.4,-17.5,30.83,WNW,295,0.0,0.0,81,0.00,,,0.00,WeatherCatV1.21B27,2013-12-07 11:22:00,
2013-12-07 05:27:00,-13.6,-17.7,30.84,WNW,295,0.0,0.0,81,0.00,,,0.00,WeatherCatV1.21B27,2013-12-07 11:27:00,
2013-12-07 05:32:00,-13.7,-17.8,30.84,WNW,295,0.0,0.0,81,0.00,,,0.00,WeatherCatV1.21B27,2013-12-07 11:32:00,
2013-12-07 05:37:00,-13.8,-17.9,30.84,WNW,295,0.0,0.0,81,0.00,,,0.00,WeatherCatV1.21B27,2013-12-07 11:37:00,
2013-12-07 05:42:00,-14.0,-18.4,30.84,WNW,295,0.0,0.0,80,0.00,,,0.00,WeatherCatV1.21B27,2013-12-07 11:42:00,
2013-12-07 05:47:00,-14.2,-18.5,30.83,WNW,295,0.0,0.0,80,0.00,,,0.00,WeatherCatV1.21B27,2013-12-07 11:47:00,
2013-12-07 05:52:00,-14.1,-18.2,30.84,WNW,295,0.0,0.0,81,0.00,,,0.00,WeatherCatV1.21B27,2013-12-07 11:52:00,
2013-12-07 05:57:00,-14.0,-18.1,30.84,WNW,295,0.0,0.0,81,0.00,,,0.00,WeatherCatV1.21B27,2013-12-07 11:57:00,
2013-12-07 06:02:00,-13.9,-18.0,30.83,WNW,295,0.0,0.0,81,0.00,,,0.00,WeatherCatV1.21B27,2013-12-07 12:02:00,
2013-12-07 06:07:00,-13.8,-17.7,30.83,WNW,295,0.0,0.0,82,0.00,,,0.00,WeatherCatV1.21B27,2013-12-07 12:07:00,
2013-12-07 06:12:00,-13.6,-17.5,30.83,WNW,295,0.0,1.0,82,0.00,,,0.00,WeatherCatV1.21B27,2013-12-07 12:12:00,
2013-12-07 06:17:00,-13.6,-17.5,30.83,WNW,295,0.0,0.0,82,0.00,,,0.00,WeatherCatV1.21B27,2013-12-07 12:17:00,
2013-12-07 06:22:00,-13.7,-17.8,30.83,WNW,295,0.0,0.0,81,0.00,,,0.00,WeatherCatV1.21B27,2013-12-07 12:22:00,
2013-12-07 06:27:00,-13.6,-17.7,30.83,WNW,295,0.0,0.0,81,0.00,,,0.00,WeatherCatV1.21B27,2013-12-07 12:27:00,
2013-12-07 06:32:00,-13.6,-17.5,30.84,WNW,295,0.0,0.0,82,0.00,,,0.00,WeatherCatV1.21B27,2013-12-07 12:32:00,
2013-12-07 06:37:00,-13.6,-17.7,30.84,WNW,295,0.0,0.0,81,0.00,,,0.00,WeatherCatV1.21B27,2013-12-07 12:37:00,
2013-12-07 06:42:00,-13.6,-17.7,30.84,WNW,295,0.0,0.0,81,0.00,,,0.00,WeatherCatV1.21B27,2013-12-07 12:42:00,
2013-12-07 06:47:00,-13.6,-17.5,30.84,WNW,295,0.0,0.0,82,0.00,,,0.00,WeatherCatV1.21B27,2013-12-07 12:47:00,
2013-12-07 06:52:00,-13.7,-17.8,30.85,WNW,295,0.0,0.0,81,0.00,,,0.00,WeatherCatV1.21B27,2013-12-07 12:52:00,
2013-12-07 06:57:00,-13.7,-17.8,30.85,WNW,295,0.0,0.0,81,0.00,,,0.00,WeatherCatV1.21B27,2013-12-07 12:57:00,
2013-12-07 07:02:00,-13.9,-18.0,30.85,WNW,295,0.0,0.0,81,0.00,,,0.00,WeatherCatV1.21B27,2013-12-07 13:02:00,
2013-12-07 07:07:00,-14.0,-18.1,30.85,WNW,295,0.0,0.0,81,0.00,,,0.00,WeatherCatV1.21B27,2013-12-07 13:07:00,
2013-12-07 07:12:00,-14.2,-18.3,30.85,WNW,295,0.0,0.0,81,0.00,,,0.00,WeatherCatV1.21B27,2013-12-07 13:12:00,
2013-12-07 07:17:00,-14.2,-18.3,30.84,WNW,295,0.0,0.0,81,0.00,,,0.00,WeatherCatV1.21B27,2013-12-07 13:17:00,
2013-12-07 07:22:00,-14.2,-18.3,30.85,WNW,295,0.0,0.0,81,0.00,,,0.00,WeatherCatV1.21B27,2013-12-07 13:22:00,
2013-12-07 07:27:00,-14.3,-18.4,30.85,WNW,295,0.0,1.0,81,0.00,,,0.00,WeatherCatV1.21B27,2013-12-07 13:27:00,
2013-12-07 07:32:00,-14.1,-18.2,30.85,WNW,295,0.0,0.0,81,0.00,,,0.00,WeatherCatV1.21B27,2013-12-07 13:32:00,
2013-12-07 07:37:00,-14.0,-18.1,30.85,WNW,295,0.0,1.0,81,0.00,,,0.00,WeatherCatV1.21B27,2013-12-07 13:37:00,
2013-12-07 07:42:00,-14.0,-18.1,30.85,WNW,295,0.0,1.0,81,0.00,,,0.00,WeatherCatV1.21B27,2013-12-07 13:42:00,
2013-12-07 07:47:00,-14.1,-18.2,30.85,WNW,295,0.0,1.0,81,0.00,,,0.00,WeatherCatV1.21B27,2013-12-07 13:47:00,
2013-12-07 07:52:00,-14.0,-18.1,30.84,WNW,295,0.0,0.0,81,0.00,,,0.00,WeatherCatV1.21B27,2013-12-07 13:52:00,
2013-12-07 07:57:00,-14.1,-18.2,30.84,WNW,295,0.0,0.0,81,0.00,,,0.00,WeatherCatV1.21B27,2013-12-07 13:57:00,
2013-12-07 08:02:00,-14.1,-18.2,30.84,WNW,295,0.0,0.0,81,0.00,,,0.00,WeatherCatV1.21B27,2013-12-07 14:02:00,
2013-12-07 08:07:00,-14.0,-18.1,30.83,WNW,295,0.0,0.0,81,0.00,,,0.00,WeatherCatV1.21B27,2013-12-07 14:07:00,
2013-12-07 08:12:00,-13.9,-18.0,30.83,WNW,295,0.0,0.0,81,0.00,,,0.00,WeatherCatV1.21B27,2013-12-07 14:12:00,
2013-12-07 08:17:00,-13.8,-17.7,30.83,WNW,295,0.0,0.0,82,0.00,,,0.00,WeatherCatV1.21B27,2013-12-07 14:17:00,
2013-12-07 08:22:00,-13.6,-17.5,30.83,WNW,295,0.0,1.0,82,0.00,,,0.00,WeatherCatV1.21B27,2013-12-07 14:22:00,
2013-12-07 08:27:00,-13.4,-17.3,30.84,WNW,295,0.0,0.0,82,0.00,,,0.00,WeatherCatV1.21B27,2013-12-07 14:27:00,
2013-12-07 08:32:00,-13.1,-17.0,30.84,WNW,295,0.0,0.0,82,0.00,,,0.00,WeatherCatV1.21B27,2013-12-07 14:32:00,
2013-12-07 08:37:00,-12.8,-16.7,30.83,WNW,295,0.0,0.0,82,0.00,,,0.00,WeatherCatV1.21B27,2013-12-07 14:37:00,
2013-12-07 08:42:00,-12.4,-16.3,30.84,WNW,295,0.0,1.0,82,0.00,,,0.00,WeatherCatV1.21B27,2013-12-07 14:42:00,
2013-12-07 08:47:00,-11.8,-15.5,30.84,WNW,295,0.0,0.0,83,0.00,,,0.00,WeatherCatV1.21B27,2013-12-07 14:47:00,
2013-12-07 08:52:00,-11.3,-15.0,30.85,WNW,295,0.0,0.0,83,0.00,,,0.00,WeatherCatV1.21B27,2013-12-07 14:52:00,
2013-12-07 08:57:00,-10.9,-14.6,30.85,WNW,295,0.0,0.0,83,0.00,,,0.00,WeatherCatV1.21B27,2013-12-07 14:57:00,
2013-12-07 09:02:00,-10.6,-14.3,30.85,WNW,295,0.0,0.0,83,0.00,,,0.00,WeatherCatV1.21B27,2013-12-07 15:02:00,
2013-12-07 09:07:00,-10.2,-14.1,30.85,WNW,295,0.0,0.0,82,0.00,,,0.00,WeatherCatV1.21B27,2013-12-07 15:07:00,
2013-12-07 09:12:00,-9.7,-13.4,30.86,WNW,295,0.0,1.0,83,0.00,,,0.00,WeatherCatV1.21B27,2013-12-07 15:12:00,
2013-12-07 09:17:00,-9.2,-12.9,30.86,WNW,295,0.0,0.0,83,0.00,,,0.00,WeatherCatV1.21B27,2013-12-07 15:17:00,
2013-12-07 09:22:00,-8.1,-11.6,30.86,WNW,295,0.0,0.0,84,0.00,,,0.00,WeatherCatV1.21B27,2013-12-07 15:22:00,
2013-12-07 09:27:00,-7.3,-11.1,30.86,WNW,295,1.0,1.0,83,0.00,,,0.00,WeatherCatV1.21B27,2013-12-07 15:27:00,
2013-12-07 09:32:00,-7.2,-11.0,30.86,WNW,295,0.0,0.0,83,0.00,,,0.00,WeatherCatV1.21B27,2013-12-07 15:32:00,
2013-12-07 09:37:00,-6.8,-10.6,30.86,NW,310,0.0,0.0,83,0.00,,,0.00,WeatherCatV1.21B27,2013-12-07 15:37:00,
2013-12-07 09:42:00,-6.4,-10.2,30.87,NW,310,0.0,1.0,83,0.00,,,0.00,WeatherCatV1.21B27,2013-12-07 15:42:00,
2013-12-07 09:47:00,-6.4,-10.2,30.86,NW,310,0.0,1.0,83,0.00,,,0.00,WeatherCatV1.21B27,2013-12-07 15:47:00,
2013-12-07 09:52:00,-6.5,-10.5,30.86,NW,310,0.0,1.0,82,0.00,,,0.00,WeatherCatV1.21B27,2013-12-07 15:52:00,
2013-12-07 09:57:00,-5.9,-9.7,30.87,NW,310,1.0,1.0,83,0.00,,,0.00,WeatherCatV1.21B27,2013-12-07 15:57:00,
2013-12-07 10:02:00,-5.1,-9.2,30.86,SE,145,0.0,2.0,82,0.00,,,0.00,WeatherCatV1.21B27,2013-12-07 16:02:00,
2013-12-07 10:07:00,-4.8,-8.9,30.86,SE,145,1.0,1.0,82,0.00,,,0.00,WeatherCatV1.21B27,2013-12-07 16:07:00,
2013-12-07 10:12:00,-5.0,-9.6,30.86,SE,145,0.0,1.0,80,0.00,,,0.00,WeatherCatV1.21B27,2013-12-07 16:12:00,
2013-12-07 10:17:00,-5.3,-9.9,30.87,SE,145,1.0,2.0,80,0.00,,,0.00,WeatherCatV1.21B27,2013-12-07 16:17:00,
2013-12-07 10:22:00,-5.3,-10.1,30.87,SE,145,0.0,0.0,79,0.00,,,0.00,WeatherCatV1.21B27,2013-12-07 16:22:00,
2013-12-07 10:27:00,-4.6,-9.2,30.86,SE,145,0.0,2.0,80,0.00,,,0.00,WeatherCatV1.21B27,2013-12-07 16:27:00,
2013-12-07 10:32:00,-4.1,-8.9,30.87,SE,145,2.0,2.0,79,0.00,,,0.00,WeatherCatV1.21B27,2013-12-07 16:32:00,
2013-12-07 10:37:00,-4.0,-9.1,30.86,SE,145,0.0,2.0,78,0.00,,,0.00,WeatherCatV1.21B27,2013-12-07 16:37:00,
2013-12-07 10:42:00,-3.7,-8.8,30.86,SE,145,1.0,2.0,78,0.00,,,0.00,WeatherCatV1.21B27,2013-12-07 16:42:00,
2013-12-07 10:47:00,-3.4,-8.5,30.86,SE,145,1.0,1.0,78,0.00,,,0.00,WeatherCatV1.21B27,2013-12-07 16:47:00,
2013-12-07 10:52:00,-3.0,-8.4,30.86,SE,145,0.0,1.0,77,0.00,,,0.00,WeatherCatV1.21B27,2013-12-07 16:52:00,
2013-12-07 10:57:00,-2.4,-7.8,30.86,SE,145,0.0,2.0,77,0.00,,,0.00,WeatherCatV1.21B27,2013-12-07 16:57:00,
2013-12-07 11:02:00,-2.2,-8.1,30.86,WNW,291,0.0,1.0,75,0.00,,,0.00,WeatherCatV1.21B27,2013-12-07 17:02:00,
2013-12-07 11:07:00,-2.6,-8.8,30.85,SSW,200,1.0,3.0,74,0.00,,,0.00,WeatherCatV1.21B27,2013-12-07 17:07:00,
2013-12-07 11:12:00,-2.7,-8.6,30.85,SSW,200,1.0,2.0,75,0.00,,,0.00,WeatherCatV1.21B27,2013-12-07 17:12:00,
2013-12-07 11:18:00,-2.7,-8.6,30.85,SSW,200,1.0,2.0,75,0.00,,,0.00,WeatherCatV1.21B27,2013-12-07 17:18:00,
2013-12-07 11:23:00,-2.8,-8.7,30.85,South,191,0.0,2.0,75,0.00,,,0.00,WeatherCatV1.21B27,2013-12-07 17:23:00,
2013-12-07 11:28:00,-2.1,-7.8,30.84,South,191,0.0,3.0,76,0.00,,,0.00,WeatherCatV1.21B27,2013-12-07 17:28:00,
2013-12-07 11:33:00,-1.5,-7.2,30.84,South,191,1.0,2.0,76,0.00,,,0.00,WeatherCatV1.21B27,2013-12-07 17:33:00,
2013-12-07 11:38:00,-1.2,-7.4,30.84,South,174,0.0,2.0,74,0.00,,,0.00,WeatherCatV1.21B27,2013-12-07 17:38:00,
2013-12-07 11:43:00,-1.3,-7.5,30.84,South,174,3.0,4.0,74,0.00,,,0.00,WeatherCatV1.21B27,2013-12-07 17:43:00,
2013-12-07 11:48:00,-1.0,-7.0,30.83,South,174,2.0,2.0,75,0.00,,,0.00,WeatherCatV1.21B27,2013-12-07 17:48:00,
2013-12-07 11:53:00,-1.1,-7.3,30.83,South,174,1.0,2.0,74,0.00,,,0.00,WeatherCatV1.21B27,2013-12-07 17:53:00,
2013-12-07 11:58:00,-1.0,-7.2,30.82,South,174,0.0,2.0,74,0.00,,,0.00,WeatherCatV1.21B27,2013-12-07 17:58:00,
2013-12-07 12:03:00,-0.9,-7.2,30.82,SSW,201,0.0,4.0,74,0.00,,,0.00,WeatherCatV1.21B27,2013-12-07 18:03:00,
2013-12-07 12:08:00,-0.9,-7.2,30.82,SSW,201,0.0,2.0,74,0.00,,,0.00,WeatherCatV1.21B27,2013-12-07 18:08:00,
2013-12-07 12:13:00,-0.8,-7.1,30.82,SSW,201,1.0,3.0,74,0.00,,,0.00,WeatherCatV1.21B27,2013-12-07 18:13:00,
2013-12-07 12:18:00,-0.5,-6.8,30.81,SSW,201,2.0,2.0,74,0.00,,,0.00,WeatherCatV1.21B27,2013-12-07 18:18:00,
2013-12-07 12:23:00,-0.1,-6.4,30.81,SSW,201,2.0,3.0,74,0.00,,,0.00,WeatherCatV1.21B27,2013-12-07 18:23:00,
2013-12-07 12:28:00,-0.3,-6.8,30.81,SSW,201,1.0,2.0,73,0.00,,,0.00,WeatherCatV1.21B27,2013-12-07 18:28:00,
2013-12-07 12:33:00,-0.7,-7.5,30.81,West,260,3.0,3.0,72,0.00,,,0.00,WeatherCatV1.21B27,2013-12-07 18:33:00,
2013-12-07 12:38:00,-1.0,-7.8,30.81,West,262,1.0,4.0,72,0.00,,,0.00,WeatherCatV1.21B27,2013-12-07 18:38:00,
2013-12-07 12:43:00,-1.2,-7.7,30.80,West,279,0.0,3.0,73,0.00,,,0.00,WeatherCatV1.21B27,2013-12-07 18:43:00,
2013-12-07 12:48:00,-1.2,-7.7,30.81,WNW,296,0.0,4.0,73,0.00,,,0.00,WeatherCatV1.21B27,2013-12-07 18:48:00,
2013-12-07 12:53:00,-1.1,-7.6,30.80,WSW,251,0.0,3.0,73,0.00,,,0.00,WeatherCatV1.21B27,2013-12-07 18:53:00,
2013-12-07 12:58:00,-0.9,-7.2,30.81,WSW,251,0.0,2.0,74,0.00,,,0.00,WeatherCatV1.21B27,2013-12-07 18:58:00,
2013-12-07 13:03:00,-0.4,-6.9,30.80,SSW,192,0.0,4.0,73,0.00,,,0.00,WeatherCatV1.21B27,2013-12-07 19:03:00,
2013-12-07 13:08:00,-0.5,-7.3,30.80,WSW,239,1.0,3.0,72,0.00,,,0.00,WeatherCatV1.21B27,2013-12-07 19:08:00,
2013-12-07 13:13:00,-0.5,-7.1,30.80,WSW,239,0.0,3.0,73,0.00,,,0.00,WeatherCatV1.21B27,2013-12-07 19:13:00,
2013-12-07 13:18:00,-0.5,-7.3,30.80,WSW,239,3.0,4.0,72,0.00,,,0.00,WeatherCatV1.21B27,2013-12-07 19:18:00,
2013-12-07 13:23:00,-0.5,-7.3,30.80,WSW,239,0.0,3.0,72,0.00,,,0.00,WeatherCatV1.21B27,2013-12-07 19:23:00,
2013-12-07 13:28:00,-0.3,-7.1,30.79,WSW,240,3.0,4.0,72,0.00,,,0.00,WeatherCatV1.21B27,2013-12-07 19:28:00,
2013-12-07 13:33:00,-0.4,-7.5,30.79,WSW,241,0.0,3.0,71,0.00,,,0.00,WeatherCatV1.21B27,2013-12-07 19:33:00,
2013-12-07 13:38:00,-0.4,-7.5,30.79,WSW,241,0.0,2.0,71,0.00,,,0.00,WeatherCatV1.21B27,2013-12-07 19:38:00,
2013-12-07 13:43:00,-0.1,-6.9,30.79,SW,233,0.0,2.0,72,0.00,,,0.00,WeatherCatV1.21B27,2013-12-07 19:43:00,
2013-12-07 13:48:00,-0.2,-7.3,30.79,SW,236,2.0,4.0,71,0.00,,,0.00,WeatherCatV1.21B27,2013-12-07 19:48:00,
2013-12-07 13:53:00,-0.4,-7.5,30.79,WSW,237,0.0,4.0,71,0.00,,,0.00,WeatherCatV1.21B27,2013-12-07 19:53:00,
2013-12-07 13:58:00,-0.4,-7.5,30.79,WSW,237,0.0,2.0,71,0.00,,,0.00,WeatherCatV1.21B27,2013-12-07 19:58:00,
2013-12-07 14:03:00,-0.3,-7.1,30.78,WSW,237,1.0,1.0,72,0.00,,,0.00,WeatherCatV1.21B27,2013-12-07 20:03:00,
2013-12-07 14:08:00,-0.2,-7.0,30.78,SW,234,1.0,3.0,72,0.00,,,0.00,WeatherCatV1.21B27,2013-12-07 20:08:00,
2013-12-07 14:13:00,-0.2,-7.0,30.78,West,274,1.0,4.0,72,0.00,,,0.00,WeatherCatV1.21B27,2013-12-07 20:13:00,
2013-12-07 14:18:00,-0.1,-6.9,30.78,WSW,242,0.0,1.0,72,0.00,,,0.00,WeatherCatV1.21B27,2013-12-07 20:18:00,
2013-12-07 14:23:00,0.4,-6.5,30.78,SW,218,1.0,2.0,72,0.00,,,0.00,WeatherCatV1.21B27,2013-12-07 20:23:00,
2013-12-07 14:28:00,0.8,-6.4,30.77,SW,218,1.0,2.0,71,0.00,,,0.00,WeatherCatV1.21B27,2013-12-07 20:28:00,
2013-12-07 14:33:00,0.9,-6.6,30.77,SW,216,1.0,1.0,70,0.00,,,0.00,WeatherCatV1.21B27,2013-12-07 20:33:00,
2013-12-07 14:38:00,1.0,-6.5,30.76,SW,216,0.0,1.0,70,0.00,,,0.00,WeatherCatV1.21B27,2013-12-07 20:38:00,
2013-12-07 14:43:00,1.0,-6.8,30.76,SW,216,0.0,1.0,69,0.00,,,0.00,WeatherCatV1.21B27,2013-12-07 20:43:00,
2013-12-07 14:48:00,0.8,-6.9,30.76,SW,216,0.0,1.0,69,0.00,,,0.00,WeatherCatV1.21B27,2013-12-07 20:48:00,
2013-12-07 14:53:00,0.6,-7.1,30.76,SW,216,1.0,1.0,69,0.00,,,0.00,WeatherCatV1.21B27,2013-12-07 20:53:00,
2013-12-07 14:58:00,0.6,-6.8,30.76,SW,216,0.0,1.0,70,0.00,,,0.00,WeatherCatV1.21B27,2013-12-07 20:58:00,
2013-12-07 15:03:00,0.6,-6.6,30.76,SW,216,0.0,1.0,71,0.00,,,0.00,WeatherCatV1.21B27,2013-12-07 21:03:00,
2013-12-07 15:08:00,0.6,-6.8,30.75,SW,216,0.0,1.0,70,0.00,,,0.00,WeatherCatV1.21B27,2013-12-07 21:08:00,
2013-12-07 15:13:00,0.4,-7.0,30.75,SW,216,0.0,2.0,70,0.00,,,0.00,WeatherCatV1.21B27,2013-12-07 21:13:00,
2013-12-07 15:18:00,0.1,-7.3,30.74,SW,218,0.0,1.0,70,0.00,,,0.00,WeatherCatV1.21B27,2013-12-07 21:18:00,
2013-12-07 15:23:00,0.0,-7.1,30.74,SW,218,0.0,2.0,71,0.00,,,0.00,WeatherCatV1.21B27,2013-12-07 21:23:00,
2013-12-07 15:28:00,-0.1,-7.2,30.74,SW,218,0.0,1.0,71,0.00,,,0.00,WeatherCatV1.21B27,2013-12-07 21:28:00,
2013-12-07 15:33:00,-0.1,-6.9,30.74,SW,218,0.0,2.0,72,0.00,,,0.00,WeatherCatV1.21B27,2013-12-07 21:33:00,
2013-12-07 15:38:00,-0.2,-7.0,30.73,SW,218,0.0,1.0,72,0.00,,,0.00,WeatherCatV1.21B27,2013-12-07 21:38:00,
2013-12-07 15:43:00,-0.4,-7.2,30.72,SW,218,1.0,1.0,72,0.00,,,0.00,WeatherCatV1.21B27,2013-12-07 21:43:00,
2013-12-07 15:48:00,-0.4,-6.9,30.72,SW,218,0.0,1.0,73,0.00,,,0.00,WeatherCatV1.21B27,2013-12-07 21:48:00,
2013-12-07 15:53:00,-0.3,-6.8,30.72,SW,218,0.0,1.0,73,0.00,,,0.00,WeatherCatV1.21B27,2013-12-07 21:53:00,
2013-12-07 15:58:00,-0.4,-6.9,30.72,SW,218,0.0,0.0,73,0.00,,,0.00,WeatherCatV1.21B27,2013-12-07 21:58:00,
2013-12-07 16:03:00,-0.4,-6.9,30.72,SW,218,0.0,0.0,73,0.00,,,0.00,WeatherCatV1.21B27,2013-12-07 22:03:00,
2013-12-07 16:08:00,-0.5,-7.1,30.72,SW,218,0.0,1.0,73,0.00,,,0.00,WeatherCatV1.21B27,2013-12-07 22:08:00,
2013-12-07 16:13:00,-0.7,-7.2,30.71,SW,218,1.0,1.0,73,0.00,,,0.00,WeatherCatV1.21B27,2013-12-07 22:13:00,
2013-12-07 16:18:00,-0.8,-7.3,30.71,SW,218,0.0,1.0,73,0.00,,,0.00,WeatherCatV1.21B27,2013-12-07 22:18:00,
2013-12-07 16:23:00,-0.8,-7.1,30.71,SW,218,0.0,0.0,74,0.00,,,0.00,WeatherCatV1.21B27,2013-12-07 22:23:00,
2013-12-07 16:28:00,-0.9,-7.2,30.71,SW,218,0.0,0.0,74,0.00,,,0.00,WeatherCatV1.21B27,2013-12-07 22:28:00,
2013-12-07 16:33:00,-0.9,-6.9,30.70,SW,218,0.0,0.0,75,0.00,,,0.00,WeatherCatV1.21B27,2013-12-07 22:33:00,
2013-12-07 16:38:00,-0.9,-6.9,30.70,SW,218,1.0,1.0,75,0.00,,,0.00,WeatherCatV1.21B27,2013-12-07 22:38:00,
2013-12-07 16:43:00,-1.2,-7.4,30.70,SW,218,0.0,1.0,74,0.00,,,0.00,WeatherCatV1.21B27,2013-12-07 22:43:00,
2013-12-07 16:48:00,-1.4,-7.4,30.69,SW,218,0.0,1.0,75,0.00,,,0.00,WeatherCatV1.21B27,2013-12-07 22:48:00,
2013-12-07 16:53:00,-1.5,-7.5,30.69,SW,218,0.0,0.0,75,0.00,,,0.00,WeatherCatV1.21B27,2013-12-07 22:53:00,
2013-12-07 16:58:00,-1.6,-7.3,30.69,SW,218,0.0,0.0,76,0.00,,,0.00,WeatherCatV1.21B27,2013-12-07 22:58:00,
2013-12-07 17:03:00,-1.7,-7.4,30.69,SW,218,0.0,0.0,76,0.00,,,0.00,WeatherCatV1.21B27,2013-12-07 23:03:00,
2013-12-07 17:08:00,-1.8,-7.5,30.69,SW,218,0.0,0.0,76,0.00,,,0.00,WeatherCatV1.21B27,2013-12-07 23:08:00,
2013-12-07 17:13:00,-1.8,-7.5,30.68,SW,218,0.0,0.0,76,0.00,,,0.00,WeatherCatV1.21B27,2013-12-07 23:13:00,
2013-12-07 17:18:00,-1.9,-7.6,30.68,SW,218,0.0,0.0,76,0.00,,,0.00,WeatherCatV1.21B27,2013-12-07 23:18:00,
2013-12-07 17:23:00,-2.0,-7.7,30.69,SW,218,0.0,0.0,76,0.00,,,0.00,WeatherCatV1.21B27,2013-12-07 23:23:00,
2013-12-07 17:28:00,-2.1,-7.8,30.68,SW,218,0.0,1.0,76,0.00,,,0.00,WeatherCatV1.21B27,2013-12-07 23:28:00,
2013-12-07 17:33:00,-2.2,-7.9,30.68,SW,218,0.0,1.0,76,0.00,,,0.00,WeatherCatV1.21B27,2013-12-07 23:33:00,
2013-12-07 17:38:00,-2.2,-7.6,30.69,SW,218,0.0,0.0,77,0.00,,,0.00,WeatherCatV1.21B27,2013-12-07 23:38:00,
2013-12-07 17:43:00,-2.2,-7.6,30.68,SW,218,0.0,1.0,77,0.00,,,0.00,WeatherCatV1.21B27,2013-12-07 23:43:00,
2013-12-07 17:48:00,-2.2,-7.3,30.68,SW,218,0.0,0.0,78,0.00,,,0.00,WeatherCatV1.21B27,2013-12-07 23:48:00,
2013-12-07 17:53:00,-2.3,-7.4,30.68,SW,218,0.0,0.0,78,0.00,,,0.00,WeatherCatV1.21B27,2013-12-07 23:53:00,
2013-12-07 17:58:00,-2.3,-7.4,30.68,SW,217,0.0,1.0,78,0.00,,,0.00,WeatherCatV1.21B27,2013-12-07 23:58:00,
2013-12-07 18:03:00,-2.1,-7.2,30.68,East,95,0.0,2.0,78,0.00,,,0.00,WeatherCatV1.21B27,2013-12-08 00:03:00,
2013-12-07 18:08:00,-2.0,-7.2,30.68,East,95,1.0,1.0,78,0.00,,,0.00,WeatherCatV1.21B27,2013-12-08 00:08:00,
2013-12-07 18:13:00,-2.0,-7.2,30.68,East,95,0.0,1.0,78,0.00,,,0.00,WeatherCatV1.21B27,2013-12-08 00:13:00,
2013-12-07 18:18:00,-2.0,-7.2,30.68,East,95,0.0,0.0,78,0.00,,,0.00,WeatherCatV1.21B27,2013-12-08 00:18:00,
2013-12-07 18:23:00,-1.9,-6.8,30.68,East,95,0.0,1.0,79,0.00,,,0.00,WeatherCatV1.21B27,2013-12-08 00:23:00,
2013-12-07 18:28:00,-1.9,-6.8,30.68,East,95,0.0,1.0,79,0.00,,,0.00,WeatherCatV1.21B27,2013-12-08 00:28:00,
2013-12-07 18:33:00,-1.9,-6.8,30.68,East,95,0.0,0.0,79,0.00,,,0.00,WeatherCatV1.21B27,2013-12-08 00:33:00,
2013-12-07 18:38:00,-1.8,-6.7,30.68,East,95,0.0,1.0,79,0.00,,,0.00,WeatherCatV1.21B27,2013-12-08 00:38:00,
2013-12-07 18:43:00,-1.8,-6.7,30.68,East,95,0.0,1.0,79,0.00,,,0.00,WeatherCatV1.21B27,2013-12-08 00:43:00,
2013-12-07 18:48:00,-1.7,-6.6,30.68,East,95,1.0,2.0,79,0.00,,,0.00,WeatherCatV1.21B27,2013-12-08 00:48:00,
2013-12-07 18:53:00,-1.7,-6.6,30.68,East,95,0.0,0.0,79,0.00,,,0.00,WeatherCatV1.21B27,2013-12-08 00:53:00,
2013-12-07 18:58:00,-1.7,-6.6,30.68,East,95,0.0,0.0,79,0.00,,,0.00,WeatherCatV1.21B27,2013-12-08 00:58:00,
2013-12-07 19:03:00,-1.6,-6.5,30.68,East,95,0.0,1.0,79,0.00,,,0.00,WeatherCatV1.21B27,2013-12-08 01:03:00,
2013-12-07 19:08:00,-1.6,-6.5,30.68,East,95,1.0,1.0,79,0.00,,,0.00,WeatherCatV1.21B27,2013-12-08 01:08:00,
2013-12-07 19:13:00,-1.5,-6.4,30.68,East,95,0.0,1.0,79,0.00,,,0.00,WeatherCatV1.21B27,2013-12-08 01:13:00,
2013-12-07 19:18:00,-1.4,-6.6,30.67,East,95,1.0,2.0,78,0.00,,,0.00,WeatherCatV1.21B27,2013-12-08 01:18:00,
2013-12-07 19:23:00,-1.4,-6.3,30.67,East,95,2.0,2.0,79,0.00,,,0.00,WeatherCatV1.21B27,2013-12-08 01:23:00,
2013-12-07 19:28:00,-1.3,-6.5,30.67,East,95,0.0,3.0,78,0.00,,,0.00,WeatherCatV1.21B27,2013-12-08 01:28:00,
2013-12-07 19:33:00,-1.3,-6.5,30.67,ESE,108,1.0,3.0,78,0.00,,,0.00,WeatherCatV1.21B27,2013-12-08 01:33:00,
2013-12-07 19:38:00,-1.2,-6.4,30.67,ESE,108,0.0,1.0,78,0.00,,,0.00,WeatherCatV1.21B27,2013-12-08 01:38:00,
2013-12-07 19:43:00,-1.2,-6.4,30.67,ESE,118,2.0,4.0,78,0.00,,,0.00,WeatherCatV1.21B27,2013-12-08 01:43:00,
2013-12-07 19:48:00,-1.1,-6.3,30.68,ESE,118,1.0,1.0,78,0.00,,,0.00,WeatherCatV1.21B27,2013-12-08 01:48:00,
2013-12-07 19:53:00,-1.1,-6.3,30.68,ESE,118,0.0,1.0,78,0.00,,,0.00,WeatherCatV1.21B27,2013-12-08 01:53:00,
2013-12-07 19:58:00,-1.0,-6.2,30.68,ESE,118,1.0,3.0,78,0.00,,,0.00,WeatherCatV1.21B27,2013-12-08 01:58:00,
2013-12-07 20:03:00,-1.0,-6.2,30.68,ESE,119,0.0,2.0,78,0.00,,,0.00,WeatherCatV1.21B27,2013-12-08 02:03:00,
2013-12-07 20:08:00,-1.0,-6.2,30.67,ESE,117,1.0,3.0,78,0.00,,,0.00,WeatherCatV1.21B27,2013-12-08 02:08:00,
2013-12-07 20:13:00,-1.0,-6.2,30.68,ESE,117,0.0,1.0,78,0.00,,,0.00,WeatherCatV1.21B27,2013-12-08 02:13:00,
2013-12-07 20:18:00,-0.9,-6.1,30.67,ESE,117,0.0,4.0,78,0.00,,,0.00,WeatherCatV1.21B27,2013-12-08 02:18:00,
2013-12-07 20:23:00,-0.9,-6.1,30.67,ESE,117,1.0,2.0,78,0.00,,,0.00,WeatherCatV1.21B27,2013-12-08 02:23:00,
2013-12-07 20:28:00,-0.8,-6.0,30.67,ESE,117,0.0,2.0,78,0.00,,,0.00,WeatherCatV1.21B27,2013-12-08 02:28:00,
2013-12-07 20:33:00,-0.7,-5.9,30.66,ESE,117,1.0,2.0,78,0.00,,,0.00,WeatherCatV1.21B27,2013-12-08 02:33:00,
2013-12-07 20:38:00,-0.6,-6.1,30.66,ESE,117,0.0,1.0,77,0.00,,,0.00,WeatherCatV1.21B27,2013-12-08 02:38:00,
2013-12-07 20:43:00,-0.6,-6.1,30.66,ESE,117,0.0,1.0,77,0.00,,,0.00,WeatherCatV1.21B27,2013-12-08 02:43:00,
2013-12-07 20:48:00,-0.6,-6.1,30.66,ESE,117,0.0,1.0,77,0.00,,,0.00,WeatherCatV1.21B27,2013-12-08 02:48:00,
2013-12-07 20:53:00,-0.5,-5.9,30.66,ESE,117,0.0,1.0,77,0.00,,,0.00,WeatherCatV1.21B27,2013-12-08 02:53:00,
2013-12-07 20:58:00,-0.5,-5.9,30.66,ESE,117,2.0,2.0,77,0.00,,,0.00,WeatherCatV1.21B27,2013-12-08 02:58:00,
2013-12-07 21:03:00,-0.5,-5.9,30.66,ESE,117,0.0,1.0,77,0.00,,,0.00,WeatherCatV1.21B27,2013-12-08 03:03:00,
2013-12-07 21:08:00,-0.3,-5.5,30.65,ESE,117,0.0,1.0,78,0.00,,,0.00,WeatherCatV1.21B27,2013-12-08 03:08:00,
2013-12-07 21:13:00,-0.2,-5.4,30.65,ESE,116,3.0,3.0,78,0.00,,,0.00,WeatherCatV1.21B27,2013-12-08 03:13:00,
2013-12-07 21:18:00,-0.1,-5.6,30.65,ESE,116,0.0,1.0,77,0.00,,,0.00,WeatherCatV1.21B27,2013-12-08 03:18:00,
2013-12-07 21:24:00,0.0,-5.5,30.65,ESE,118,0.0,2.0,77,0.00,,,0.00,WeatherCatV1.21B27,2013-12-08 03:24:00,
2013-12-07 21:29:00,0.0,-5.2,30.65,ESE,118,0.0,1.0,78,0.00,,,0.00,WeatherCatV1.21B27,2013-12-08 03:29:00,
2013-12-07 21:34:00,0.1,-5.1,30.65,ESE,118,0.0,1.0,78,0.00,,,0.00,WeatherCatV1.21B27,2013-12-08 03:34:00,
2013-12-07 21:39:00,0.2,-4.7,30.64,ESE,118,1.0,1.0,79,0.00,,,0.00,WeatherCatV1.21B27,2013-12-08 03:39:00,
2013-12-07 21:45:00,0.3,-4.6,30.64,ESE,118,0.0,0.0,79,0.00,,,0.00,WeatherCatV1.21B27,2013-12-08 03:45:00,
2013-12-07 21:50:00,0.3,-4.6,30.64,ESE,118,0.0,2.0,79,0.00,,,0.00,WeatherCatV1.21B27,2013-12-08 03:50:00,
2013-12-07 21:55:00,0.3,-4.4,30.63,East,100,1.0,3.0,80,0.00,,,0.00,WeatherCatV1.21B27,2013-12-08 03:55:00,
2013-12-07 22:01:00,0.3,-4.4,30.63,ESE,112,1.0,1.0,80,0.00,,,0.00,WeatherCatV1.21B27,2013-12-08 04:01:00,
2013-12-07 22:06:00,0.3,-4.1,30.63,ESE,112,0.0,1.0,81,0.00,,,0.00,WeatherCatV1.21B27,2013-12-08 04:06:00,
2013-12-07 22:11:00,0.4,-3.8,30.63,ESE,112,1.0,2.0,82,0.00,,,0.00,WeatherCatV1.21B27,2013-12-08 04:11:00,
2013-12-07 22:17:00,0.4,-3.8,30.63,SE,137,0.0,2.0,82,0.00,,,0.00,WeatherCatV1.21B27,2013-12-08 04:17:00,
2013-12-07 22:22:00,0.5,-3.7,30.62,SE,133,0.0,2.0,82,0.00,,,0.00,WeatherCatV1.21B27,2013-12-08 04:22:00,
2013-12-07 22:28:00,0.6,-3.3,30.62,SE,133,0.0,0.0,83,0.00,,,0.00,WeatherCatV1.21B27,2013-12-08 04:28:00,
2013-12-07 22:33:00,0.7,-3.2,30.61,SE,128,1.0,3.0,83,0.00,,,0.00,WeatherCatV1.21B27,2013-12-08 04:33:00,
2013-12-07 22:39:00,0.8,-3.1,30.61,SE,128,2.0,2.0,83,0.00,,,0.00,WeatherCatV1.21B27,2013-12-08 04:39:00,
2013-12-07 22:44:00,0.9,-2.8,30.61,East,99,6.0,6.0,84,0.00,,,0.00,WeatherCatV1.21B27,2013-12-08 04:44:00,
2013-12-07 22:51:00,0.9,-2.8,30.60,ESE,118,1.0,1.0,84,0.00,,,0.00,WeatherCatV1.21B27,2013-12-08 04:51:00,
2013-12-07 22:56:00,1.1,-2.6,30.60,SE,139,0.0,2.0,84,0.00,,,0.00,WeatherCatV1.21B27,2013-12-08 04:56:00,
2013-12-07 23:01:00,1.2,-2.5,30.60,SE,138,0.0,1.0,84,0.00,,,0.00,WeatherCatV1.21B27,2013-12-08 05:01:00,
2013-12-07 23:02:00,1.2,-2.5,30.60,SE,138,1.0,1.0,84,0.00,,,0.00,WeatherCatV1.21B27,2013-12-08 05:02:00,
2013-12-07 23:05:00,1.3,-2.4,30.59,SE,137,0.0,1.0,84,0.00,,,0.00,WeatherCatV1.21B27,2013-12-08 05:05:00,
2013-12-07 23:06:00,1.3,-2.4,30.59,SE,137,0.0,1.0,84,0.00,,,0.00,WeatherCatV1.21B27,2013-12-08 05:06:00,
2013-12-07 23:11:00,1.4,-2.0,30.59,SE,137,0.0,1.0,85,0.00,,,0.00,WeatherCatV1.21B27,2013-12-08 05:11:00,
2013-12-07 23:16:00,1.5,-1.9,30.58,SE,124,0.0,1.0,85,0.00,,,0.00,WeatherCatV1.21B27,2013-12-08 05:16:00,
2013-12-07 23:22:00,1.8,-1.6,30.58,SSE,160,0.0,3.0,85,0.00,,,0.00,WeatherCatV1.21B27,2013-12-08 05:22:00,
2013-12-07 23:27:00,2.0,-1.5,30.58,SE,124,1.0,2.0,85,0.00,,,0.00,WeatherCatV1.21B27,2013-12-08 05:27:00,
2013-12-07 23:32:00,2.2,-1.2,30.58,ESE,120,2.0,3.0,85,0.00,,,0.00,WeatherCatV1.21B27,2013-12-08 05:32:00,
2013-12-07 23:38:00,2.4,-1.1,30.58,ENE,63,7.0,7.0,85,0.00,,,0.00,WeatherCatV1.21B27,2013-12-08 05:38:00,
2013-12-07 23:44:00,2.6,-0.9,30.57,ESE,116,1.0,2.0,85,0.00,,,0.00,WeatherCatV1.21B27,2013-12-08 05:44:00,
2013-12-07 23:49:00,2.7,-0.8,30.57,SE,126,2.0,2.0,85,0.00,,,0.00,WeatherCatV1.21B27,2013-12-08 05:49:00,
2013-12-07 23:54:00,2.7,-0.8,30.56,SSE,147,1.0,2.0,85,0.00,,,0.00,WeatherCatV1.21B27,2013-12-08 05:54:00,
2013-12-07 23:59:00,2.8,-0.7,30.56,SE,146,1.0,3.0,85,0.00,,,0.00,WeatherCatV1.21B27,2013-12-08 05:59:00,